Home   Weather   Grieskirchen   Past weeks

Flag for Austria Past Weather in Grieskirchen, Upper Austria, Austria — Yesterday and Last 2 Weeks

Now
61 °F

Rain. Partly sunny.


Feels Like: 61 °F
Forecast: 53 / 65 °F
Wind: 2 mph from Northwest

Location: Linz / Hoersching-Flughafen

Current Time: Jul 24, 2017 at 10:49:02 am

Latest Report: Jul 24, 2017 at 10:20 am


Visibility: 2 mi

Pressure: 29.83 "Hg

Humidity: 94%

Dew Point: 59 °F

Location of GrieskirchenLocation

Past Weather in Grieskirchen — Graph

°F

Grieskirchen Temperature Yesterday

Maximum temperature yesterday: 81 °F (at 4:20 pm)
Minimum temperature yesterday: 64 °F (at 1:20 am)
Average temperature yesterday: 71 °F

High & Low Weather Summary for the Past Weeks

 TemperatureHumidityPressure
High90 °F (Jul 19, 3:20 pm)100% (Jul 10, 2:50 am)30.30 "Hg (Jul 10, 2:50 am)
Low50 °F (Jul 16, 4:50 am)25% (Jul 13, 4:50 pm)29.80 "Hg (Jul 10, 5:50 pm)
Average70 °F63%30.02 "Hg
* Reported Jul 9 9:20 am — Jul 24 9:50 am, Grieskirchen. Weather by CustomWeather, © 2017

Note: Actual official high and low records may vary slightly from our data, if they occured in-between our weather recording intervals... More about our weather records

Advertising

Grieskirchen Weather History for the Previous 24 Hours

Scroll right to see more
 ConditionsComfort  
Time TempWeatherWind HumidityBarometerVisibility
9:50 am
Mon, Jul 24
61 °FRain. Broken clouds.1 mph94%29.83 "Hg2 mi
9:20 am61 °FRain. Broken clouds.2 mph94%29.83 "Hg3 mi
8:50 am61 °FLight rain. Broken clouds.6 mph94%29.86 "HgN/A
8:20 am61 °FLight rain. Broken clouds.6 mph94%29.86 "HgN/A
7:50 am63 °FLight rain. Broken clouds.6 mph94%29.86 "Hg4 mi
7:20 am63 °FRain showers. Broken clouds.8 mph94%29.89 "Hg3 mi
6:50 am63 °FLight rain. Partly sunny.9 mph88%29.92 "HgN/A
6:20 am63 °FSprinkles. Partly sunny.2 mph94%29.92 "HgN/A
5:50 am63 °FPartly sunny.2 mph94%29.92 "HgN/A
5:20 am61 °FSprinkles. Passing clouds.1 mph94%29.92 "HgN/A
4:50 am61 °FLight rain. Passing clouds.2 mph94%29.95 "HgN/A
4:20 am61 °FLight rain. Partly cloudy.3 mph100%29.95 "HgN/A
3:50 am63 °FRain. Passing clouds.6 mph94%29.95 "Hg5 mi
3:20 am63 °FRain. Overcast.3 mph94%29.98 "Hg6 mi
2:50 am63 °FRain. Passing clouds.5 mph88%29.98 "HgN/A
2:20 am63 °FDrizzle. Overcast.6 mph88%29.98 "HgN/A
1:50 am63 °FPassing clouds.3 mph94%29.98 "HgN/A
1:20 am63 °FPassing clouds.5 mph88%30.01 "HgN/A
12:50 am64 °FLight rain. Passing clouds.10 mph88%30.01 "HgN/A
12:20 am66 °FRain. Partly cloudy.7 mph94%30.01 "Hg5 mi
11:50 pm
Sun, Jul 23
66 °FPassing clouds.6 mph88%30.01 "HgN/A
11:20 pm66 °FOvercast.6 mph88%30.01 "HgN/A
10:50 pm68 °FSprinkles. Passing clouds.5 mph83%30.01 "HgN/A
10:20 pm68 °FOvercast.8 mph83%30.01 "HgN/A
9:50 pm68 °FOvercast.9 mph83%30.01 "HgN/A
9:20 pm68 °FMild.6 mph78%30.01 "HgN/A
8:50 pm70 °FMild.7 mph73%30.01 "HgN/A
8:20 pm73 °FHeavy rain. Cloudy.10 mph65%29.98 "HgN/A
7:50 pm77 °FPartly sunny.8 mph51%29.98 "HgN/A
7:20 pm77 °FPartly sunny.8 mph51%29.98 "HgN/A
6:50 pm77 °FScattered clouds.8 mph51%29.98 "HgN/A
6:20 pm79 °FScattered clouds.8 mph48%29.98 "HgN/A
5:20 pm79 °FPartly sunny.12 mph48%29.98 "HgN/A
4:50 pm81 °FPartly sunny.9 mph48%29.98 "HgN/A
4:20 pm81 °FPartly sunny.10 mph48%30.01 "HgN/A
3:50 pm79 °FPartly sunny.9 mph51%30.01 "HgN/A
3:20 pm79 °FPartly sunny.7 mph54%30.01 "HgN/A
2:50 pm79 °FPartly sunny.7 mph48%30.01 "HgN/A
2:20 pm77 °FPartly sunny.8 mph54%30.04 "HgN/A
1:50 pm77 °FPartly sunny.9 mph57%30.04 "HgN/A
1:20 pm75 °FPartly sunny.10 mph61%30.04 "HgN/A
12:50 pm75 °FPartly sunny.7 mph61%30.04 "HgN/A
12:20 pm73 °FPartly sunny.9 mph65%30.04 "HgN/A
11:50 am72 °FPartly sunny.8 mph69%30.04 "HgN/A
11:20 am70 °FPartly sunny.9 mph73%30.04 "HgN/A
10:50 am70 °FPartly sunny.7 mph73%30.04 "HgN/A
10:20 am68 °FScattered clouds.8 mph78%30.04 "HgN/A
Weather by CustomWeather, © 2017

See weather overviewHow to use our weather pages